Weather in Kanash

Russia / Chuvash Republic     56°02′55″N   46°33′26″E
temp.,
°C
wind,
m/s
gust,
m/s
humid.,
%
clouds,
%
prec.,
mm/h
press.,
hPa
HPBL,
m
9 may, sun
sun900:00+10se6128881 0.0 1010259
03:00+9se41093100 0.0 1010170
06:00+11se31084100 0.1 1009265
09:00+17sse61367100 0.1 1008703
12:00+19s81459100 0.0 10081514
15:00+15sse6137797 0.3 1009526
18:00+17sse61272100 0.3 1009567
21:00+15s41177100 1.5 1010236
10 may, mon
mon1000:00+11wsw3896100 0.1 1013229
03:00+10wnw3697100 0.3 1016257
06:00+10nnw3597100 0.6 1018262
09:00+9n4695100 1.1 1020268
12:00+9n6791100 0.3 1023399
15:00+10n5690100 0.3 1024393
18:00+9n5890100 0.0 1025375
21:00+7nne5119697 0.0 1026287
11 may, tue
tue1100:00+6nne41097100 0.0 1027252
03:00+6nne51098100 0.0 1028231
06:00+8nne599292 0.0 1028256
09:00+14ne577451 0.0 1029490
12:00+19ne456137 0.0 1028883
15:00+21ne455792 0.0 10281196
18:00+18ne4873100 0.0 1028241
21:00+14ne41186100 0.0 1029196
12 may, wed
wed1200:00+13ene41191100 0.0 1029214
03:00+12ene4109331 0.0 1028170
06:00+14e4985100 0.0 1029222
09:00+19ese5763100 0.0 1029418
12:00+22ese575132 0.0 10291085
15:00+23ese57486 0.0 10281913
18:00+20ese376620 0.0 1028186
21:00+15ese3668100 0.0 102878
13 may, thu
thu1300:00+14ese476658 0.0 102893
03:00+14ese3670100 0.0 102894
06:00+15ese497749 0.0 1028193
09:00+19se585986 0.0 1027527
12:00+22se684582 0.0 10271353
15:00+23se6849100 0.0 10261506
18:00+19se3867100 0.0 1026249
21:00+15se476991 0.0 1025100